Regional Weather Roundup
Issued by NWS

Home | Current Version | Previous Version | Graphics & Text | Print | Product List | Glossary On
Versions: 1 2 3 4 5 6 7 8 9 10 11 12 13 14 15 16 17 18 19 20 21 22 23 24 25 26 27 28 29 30 31 32 33 34 35 36 37 38 39 40 41 42 43 44 45 46 47 48 49 50
435
ASUS45 KSLC 262210
RWRUT

UTAH REGIONAL WEATHER ROUNDUP
NATIONAL WEATHER SERVICE SALT LAKE CITY UT
400 PM MDT MON JUN 26 2017

UTZ001>011-023>025-262300-

NORTHERN UTAH

CITY           SKY/WX    TMP DP  RH WIND       PRES   REMARKS
BRIGHAM CITY   MOSUNNY   94  22   7 SW3       29.99F
HILL AFB       MOSUNNY   92  32  11 SW7       30.02F
LOGAN          MOSUNNY   93  44  18 SW9       30.00F
OGDEN          MOSUNNY   95  31  10 SW7       29.99F
SALT LAKE CITY PTSUNNY   98  30   9 S12G23    29.95F HX  92
TOOELE VALLEY  MOSUNNY   93  48  21 N10       29.97F HX  90
WENDOVER         N/A     91  32  12 E5        29.95F
HEBER CITY     PTSUNNY   91  30  11 SW12      30.09F
WEST JORDAN    MOSUNNY   95  55  25 SE12G17   30.00F HX  93

$$

UTZ011>015-024>027-262300-

CENTRAL/NORTHEAST UTAH

CITY           SKY/WX    TMP DP  RH WIND       PRES   REMARKS
PROVO AIRPORT  PTSUNNY   93  34  12 E7        30.01F
MOAB/CANYONLAN SUNNY     99  12   4 VRB6      29.98F HX  91
DELTA          SUNNY     99  28   8 SW8G16    29.98F HX  92
PRICE          PTSUNNY   92  25   9 VRB5      30.12F
RICHFIELD      SUNNY     91  32  12 NW1       30.07F
VERNAL         SUNNY     92  28  10 SE8       30.07F

$$

UTZ013>016-019>022-027-262300-

SOUTHERN UTAH

CITY           SKY/WX    TMP DP  RH WIND       PRES   REMARKS
BRYCE CANYON   MOSUNNY   85  24  11 SW21G32   30.30F
CEDAR CITY     SUNNY     93  19   7 SW25G41   30.11F
MILFORD        SUNNY    100  24   6 S29       30.02F HX  93
ST GEORGE      MOCLDY   105  20   5 SW30G40   29.88F HX  97
HANKSVILLE     MOSUNNY   99  27   8 CALM      30.00F HX  92
KANAB          MOSUNNY   99  23   6 S16G28    30.10F HX  92
BLANDING       MOSUNNY   87  33  14 NE12G17   30.22F

$$

REGIONAL REPORTS     COLORADO/ARIZONA

CITY           SKY/WX    TMP DP  RH WIND       PRES   REMARKS
CRAIG, CO      SUNNY     90  12   5 W7        30.17F
GRAND JUNCTION SUNNY     97  17   5 NW12G22   30.02F HX  90
RIFLE, CO      CLOUDY    91  20   7 NW8       30.09F
MONTROSE, CO   SUNNY     92  26   9 E7        30.11F
CORTEZ, CO     SUNNY     91  26   9 S12G17    30.15F
COLORADO CITY    N/A    100  28   8 SW16G35   30.11S HX  94
PAGE, AZ       MOSUNNY  102  28   7 VRB7G16   29.98F HX  95
GRAND CANYON   SUNNY     90  20   7 W13G28    30.26F
KINGMAN, AZ    SUNNY    102  29   7 SW20G29   30.02F HX  95
FLAGSTAFF, AZ  MOSUNNY   87  26  11 W18G26    30.29F

$$

REGIONAL REPORTS    NEVADA/IDAHO/WYOMING

CITY           SKY/WX    TMP DP  RH WIND       PRES   REMARKS
LAS VEGAS, NV  SUNNY    108  -1   2 SW17G30   29.83F HX  98
ELY, NY        SUNNY     92  35  13 S8        30.08F
ELKO, NV       MOSUNNY   91  26   9 S32G51    29.97S THUNDER HAZE
POCATELLO, ID  SUNNY     94  44  17 NE7       29.97F HX  90
BURLEY, ID     MOSUNNY   94  43  17 E9        29.89F HX  90
FORT BRIDGER,    N/A     86  27  11 NW9G23    30.24F
EVANSTON, WY   CLOUDY    83  32  16 W16G25    30.23F
ROCK SPRINGS,  SUNNY     86  15   7 W14G26    30.18F
KEMMERER, WY     N/A     79  28  15 W13G22    30.26S

$$




USA.gov is the U.S. government's official web portal to all federal, state and local government web resources and services.